Theta_e
347 352 355 360 364 364 363 362 361 361 361 361 361 361 362 363 363 362 362 362 363 363 362 362 360 361 362 361 362 362 362 362 362 363 362 360 357 359 359 360 364 355 361
345 353 356 360 364 365 366 364 363 361 360 361 363 363 362 362 362 362 363 362 364 364 363 362 361 362 362 362 363 362 363 362 362 362 363 362 361 361 361 359 362 358 360
347 353 356 363 364 365 366 365 363 362 361 363 364 363 362 361 363 362 362 362 363 363 363 363 363 361 361 361 361 362 362 362 361 361 362 354 354 362 361 360 361 360 360
349 352 354 364 366 365 366 364 364 362 363 362 363 363 363 361 362 361 362 362 362 363 362 363 363 362 362 361 361 360 360 358 359 348 340 350 351 360 361 361 360 361 360
349 354 357 363 367 365 367 366 365 364 363 362 361 363 362 362 362 361 362 360 362 363 362 363 362 362 361 361 361 359 359 358 359 344 339 342 352 358 359 359 358 359 360
352 354 360 365 365 365 364 364 364 363 363 362 362 361 362 360 362 361 361 361 361 361 361 361 361 360 359 358 358 357 357 357 360 349 344 347 352 360 360 360 359 359 358
352 356 357 365 365 364 364 363 364 362 362 361 361 361 362 360 361 361 360 359 360 361 362 361 360 359 358 358 356 356 358 358 358 352 346 350 356 363 360 360 360 360 360
353 353 357 364 365 365 363 364 363 362 361 360 360 359 359 359 357 361 360 359 360 360 360 360 360 359 358 357 353 352 356 359 355 350 352 352 360 361 358 361 360 359 359
355 351 356 356 363 364 363 363 363 362 362 360 360 358 359 360 358 358 358 357 357 359 359 359 359 358 357 355 353 354 353 355 352 342 341 345 361 360 358 357 356 357 357
351 350 353 357 358 359 360 362 363 363 362 361 360 359 359 360 353 351 353 356 355 358 358 359 359 359 358 357 357 356 356 354 350 351 346 347 359 359 358 359 359 359 358
346 349 348 350 353 356 356 359 362 361 361 362 360 362 359 356 352 353 353 355 357 358 358 357 356 358 358 359 359 358 357 352 350 347 352 357 360 359 359 359 358 360 360
345 348 347 347 348 351 354 360 361 360 356 361 363 361 359 360 356 349 351 352 354 354 358 359 359 357 356 351 354 358 353 351 348 340 344 358 359 356 357 359 360 361 359
347 346 345 350 353 352 353 354 360 357 359 364 363 362 360 354 349 351 352 352 353 353 350 354 354 353 351 349 347 350 350 348 353 345 344 356 358 354 355 358 361 360 359
343 344 345 352 360 352 350 358 354 351 359 359 360 362 364 358 359 350 350 352 353 350 346 351 346 346 348 348 351 347 348 349 349 348 345 356 353 357 356 357 361 361 361
340 342 346 353 365 359 359 362 353 359 352 351 355 363 348 357 355 358 357 354 347 350 348 349 346 348 347 348 347 349 344 345 345 350 348 358 357 361 359 357 358 361 361
340 342 352 356 362 357 360 363 363 364 364 358 364 361 362 360 358 359 358 357 355 356 351 349 351 349 350 350 348 350 343 342 344 347 349 353 361 361 360 361 361 362 359
341 343 347 354 357 358 360 361 364 362 364 361 363 359 359 362 361 360 357 358 353 357 348 346 340 354 351 348 344 347 346 345 348 354 351 354 358 361 361 360 362 362 362
345 347 350 351 354 357 360 365 366 363 364 367 363 364 360 360 362 361 358 357 358 356 353 351 345 343 345 343 341 341 342 343 343 346 350 352 350 354 359 361 362 362 361
346 352 351 354 353 359 363 365 364 365 365 363 359 358 359 359 362 362 357 357 359 358 354 355 348 344 341 343 342 342 343 343 344 346 349 353 350 351 353 360 361 361 361
351 354 358 354 358 361 346 352 361 364 366 359 356 356 359 360 357 357 357 357 356 357 356 353 351 350 346 348 347 344 346 346 350 350 350 353 352 352 350 355 356 356 363
351 355 357 352 362 360 356 358 359 359 364 362 363 361 359 358 358 354 356 357 354 354 356 356 356 351 350 352 347 346 348 348 347 347 351 352 351 352 350 350 355 352 356
349 354 359 362 367 366 363 362 363 360 362 365 365 365 364 365 365 360 359 357 358 358 357 354 355 351 351 353 346 343 339 341 346 346 346 346 350 351 350 350 355 352 353
346 349 350 363 367 367 371 367 367 365 367 361 362 366 366 368 367 364 363 362 361 363 358 358 355 352 343 351 352 341 334 332 337 337 334 335 346 349 349 348 351 352 354
338 337 347 361 367 366 365 360 366 361 351 355 364 366 366 367 367 367 367 364 361 361 360 356 356 356 349 345 352 351 347 345 337 332 337 339 348 348 344 343 342 348 349
346 344 345 366 366 368 361 357 355 355 353 356 359 355 366 368 367 363 364 364 363 362 360 358 357 356 352 350 349 351 352 344 344 338 332 337 347 350 348 344 342 346 352
347 352 361 362 365 364 357 351 349 347 348 349 349 356 356 360 359 355 356 357 359 355 354 355 358 354 352 352 352 351 349 345 343 338 334 337 336 341 349 349 346 349 353
Wind_Speed
4 3 2 4 8 9 9 9 9 9 10 11 12 10 12 12 11 10 10 9 10 8 8 8 7 7 10 9 9 10 10 11 13 14 14 14 11 8 10 8 15 13 13
11 7 2 3 7 11 11 11 10 8 8 8 10 10 10 10 10 9 9 9 9 10 10 10 10 10 10 10 9 10 10 10 11 13 14 14 12 9 6 6 17 12 13
11 8 5 4 9 11 12 12 10 10 9 7 10 10 9 7 9 9 10 10 9 11 11 11 11 10 10 10 9 8 7 8 9 11 14 7 7 12 11 15 14 13 12
9 7 9 6 10 12 11 11 10 10 9 7 9 9 8 8 8 8 9 9 8 10 10 10 10 10 10 8 7 5 5 5 9 14 17 11 10 11 12 14 12 12 12
11 10 12 9 10 12 12 11 10 10 8 7 8 8 7 8 9 7 9 7 10 9 10 10 11 10 9 8 6 2 3 6 14 26 10 10 4 10 12 14 11 11 10
13 10 14 12 11 12 12 11 10 9 7 7 6 6 7 7 8 8 8 7 9 10 9 9 10 9 8 6 4 2 3 5 8 20 9 4 4 11 10 12 11 12 12
8 13 13 12 11 11 11 11 10 8 6 5 5 5 7 8 7 9 7 6 7 8 10 9 9 7 6 4 2 3 7 7 7 10 20 11 7 10 12 13 13 12 11
16 15 14 13 12 11 11 10 9 7 7 6 6 5 6 10 7 7 6 6 7 7 8 8 7 6 5 4 2 3 7 8 8 9 8 9 11 8 9 11 11 11 11
5 15 14 13 11 11 10 10 9 8 7 4 5 5 6 10 10 8 7 6 4 5 6 7 6 6 3 2 1 3 7 8 5 7 3 3 9 10 9 9 9 10 10
8 11 12 12 12 11 11 11 9 8 7 6 5 7 8 9 6 3 3 5 7 6 6 7 8 6 5 5 5 6 6 7 5 6 8 7 11 10 8 8 9 9 9
13 5 17 15 12 11 13 11 12 12 10 9 8 10 10 6 6 5 5 6 6 9 8 8 8 8 7 8 10 10 8 3 1 3 3 11 13 12 9 10 8 9 9
21 18 8 16 15 13 8 10 11 11 8 7 7 6 5 6 7 7 9 7 5 5 6 10 11 10 9 7 7 12 5 6 4 4 4 11 10 10 9 10 10 9 10
16 12 13 6 8 13 6 10 6 4 6 6 7 6 5 3 5 5 4 3 2 2 4 5 5 5 8 7 8 5 9 5 5 4 6 13 12 12 12 11 13 13 12
8 6 10 9 10 11 4 5 4 2 4 5 6 7 3 3 2 6 3 4 4 4 7 4 3 9 10 10 3 7 5 3 5 5 3 9 16 14 15 16 14 15 15
10 9 9 8 8 6 5 3 5 5 4 5 3 5 2 4 3 2 2 3 5 6 6 6 7 7 9 12 5 7 5 7 10 3 4 18 18 16 17 17 18 17 17
11 11 15 12 8 7 3 2 3 3 2 6 3 3 3 4 3 2 3 1 1 2 4 2 4 8 7 4 5 3 6 7 9 8 4 7 20 19 19 19 19 19 19
13 15 12 14 12 10 7 4 2 2 3 3 3 4 4 4 3 2 4 2 3 3 2 1 4 3 3 1 5 6 7 7 6 5 5 3 8 19 20 20 18 19 20
12 14 13 12 13 10 7 4 3 4 2 1 1 3 4 3 2 3 3 2 3 2 3 4 3 3 4 2 3 7 6 7 10 9 5 7 4 8 16 23 22 21 22
14 10 12 10 14 14 9 5 4 3 3 2 3 2 3 5 4 2 3 3 4 4 4 4 4 5 5 5 6 7 7 7 10 9 11 9 7 7 7 18 23 21 23
19 9 8 1 9 12 14 12 5 5 4 5 5 3 2 2 1 1 3 2 2 3 4 4 6 5 5 6 6 7 7 8 7 8 11 9 9 11 11 12 12 13 24
12 12 15 12 12 11 9 8 4 3 3 5 5 8 8 5 6 5 5 3 4 5 4 3 4 7 5 6 4 6 9 9 9 9 10 11 11 10 13 7 10 9 12
10 2 9 7 9 6 8 7 4 5 2 0 3 6 7 7 6 5 7 4 5 4 5 4 5 5 4 4 3 3 3 2 3 2 8 12 13 10 12 13 14 15 13
17 11 18 10 8 7 7 6 3 5 1 3 3 4 3 3 3 5 2 4 4 3 3 1 3 4 5 3 4 4 3 2 3 4 7 13 13 4 8 7 7 16 14
19 13 23 13 11 8 8 5 4 2 2 4 1 2 3 4 4 2 1 3 3 2 3 2 4 4 0 6 5 4 5 3 1 2 4 12 9 4 6 3 6 8 13
20 18 15 10 9 5 3 10 3 6 4 5 4 2 3 4 3 8 5 6 5 3 4 4 4 4 4 5 6 3 2 3 4 3 3 5 5 3 3 3 8 7 10
7 9 14 10 6 7 4 7 4 9 4 0 7 5 6 4 6 7 6 5 6 6 6 5 5 5 5 6 5 5 3 1 2 3 5 4 5 6 3 2 5 7 9
Wind_Direction
210 239 352 113 119 113 116 118 113 113 108 99 96 95 93 94 93 91 98 99 102 114 125 125 111 104 125 122 116 107 109 104 107 111 110 109 111 107 108 132 110 102 108
146 162 55 129 124 123 122 124 128 121 107 101 104 100 94 101 103 100 106 110 104 106 113 118 115 114 115 116 117 121 120 128 131 125 118 116 108 98 107 110 98 114 107
138 135 152 134 117 120 126 131 131 124 123 120 113 107 111 113 109 114 115 114 120 116 113 118 118 121 116 117 120 123 132 155 140 141 141 131 112 109 105 102 106 110 111
150 147 139 137 115 122 131 138 134 129 126 117 110 103 105 113 117 114 112 119 123 112 118 118 112 112 109 107 119 136 176 143 122 61 13 305 127 121 114 106 106 107 105
160 170 132 144 130 123 124 127 134 131 123 118 113 109 119 114 106 106 109 124 125 119 119 114 116 112 117 112 121 157 208 165 130 89 253 273 99 125 126 118 123 124 129
158 163 137 148 140 130 130 130 129 128 132 123 112 116 107 111 115 109 111 118 118 119 112 115 121 119 115 112 125 203 259 291 294 154 200 317 118 138 137 122 119 119 117
147 127 138 147 139 135 136 136 137 137 136 129 129 114 113 109 117 118 117 120 108 128 129 140 133 127 115 112 102 302 296 291 301 132 126 199 118 137 130 122 126 124 127
158 150 134 142 143 145 142 133 132 138 133 125 120 112 110 128 126 126 129 126 136 142 141 139 143 143 133 117 100 323 305 316 6 7 91 112 132 122 122 130 126 132 133
173 132 139 150 147 141 136 139 149 147 137 128 116 126 123 131 136 119 118 145 140 159 149 162 176 163 170 176 256 301 317 344 61 85 54 349 133 138 141 137 140 147 144
172 155 148 145 158 160 157 157 148 146 146 153 146 140 129 131 139 147 112 132 157 165 172 185 185 191 208 240 260 274 295 290 225 149 173 173 157 152 156 163 166 162 156
274 273 159 158 170 193 167 167 166 168 176 178 164 145 148 157 165 161 193 175 184 178 187 191 200 211 218 239 242 241 246 263 334 92 102 157 154 169 161 170 178 174 173
203 210 166 165 175 189 155 161 177 178 184 187 140 182 215 165 144 184 192 190 210 215 217 213 204 208 227 242 219 236 233 226 207 171 156 164 169 170 175 178 188 193 192
176 153 185 135 149 85 95 227 171 169 178 145 157 181 232 178 149 173 181 194 90 74 283 232 232 243 229 249 224 220 227 198 281 215 190 193 177 186 188 201 198 203 200
188 161 140 147 120 90 177 281 109 313 171 169 179 193 149 209 176 157 171 140 162 173 209 163 67 298 283 282 169 216 281 213 209 204 194 185 207 205 202 199 209 208 207
183 184 136 127 82 93 116 25 129 233 177 139 156 194 215 228 196 217 157 162 175 171 211 182 180 210 258 252 178 238 311 315 303 188 210 196 203 204 209 205 201 211 214
180 177 128 115 121 107 85 97 192 211 300 126 136 182 258 321 348 296 218 194 274 211 199 251 213 196 227 288 303 228 235 252 265 280 229 199 196 202 208 210 201 203 213
180 159 162 155 160 153 173 234 162 261 159 146 135 155 193 216 226 279 262 200 247 223 142 251 291 318 282 265 288 286 280 238 266 271 276 196 196 206 208 217 202 207 209
174 156 161 164 155 162 180 205 217 246 48 98 85 167 208 196 248 266 273 280 257 211 210 217 234 272 275 243 263 279 286 285 282 277 259 264 209 208 211 208 208 208 208
134 178 170 151 158 165 154 175 189 200 180 135 111 52 30 204 196 238 336 271 236 226 235 244 218 220 239 247 244 248 253 261 268 274 260 249 237 229 217 211 205 205 211
159 172 110 59 124 111 113 256 207 218 182 175 161 189 206 293 26 305 266 248 296 259 235 219 239 202 228 245 236 242 238 239 263 256 272 260 246 236 241 210 201 203 208
151 157 144 199 159 146 154 194 188 204 203 195 221 181 202 213 215 226 252 233 258 256 254 258 242 244 237 233 258 252 253 238 237 241 253 252 240 225 233 219 191 203 202
58 177 163 188 157 189 176 172 185 164 204 212 253 172 199 211 211 206 236 246 266 256 246 248 275 282 281 244 241 262 277 3 0 353 298 325 246 227 235 227 197 197 196
90 330 298 174 162 193 249 137 123 147 116 187 234 209 185 222 222 234 244 244 272 283 323 13 280 307 297 308 260 260 308 285 60 356 319 318 309 343 327 319 261 200 204
131 200 252 229 162 203 233 141 161 166 165 255 155 153 200 182 210 197 211 235 241 292 297 314 284 271 304 279 292 246 272 218 268 140 244 241 246 135 255 341 290 315 288
168 185 232 150 154 186 51 51 50 50 45 356 287 171 257 176 137 67 33 29 21 3 11 324 312 291 231 267 307 326 309 246 188 201 229 274 321 327 309 37 294 255 264
154 173 127 128 131 131 115 125 136 142 112 322 271 266 224 146 74 47 23 25 29 16 2 354 350 332 315 308 301 297 287 275 275 213 235 254 272 300 269 212 262 333 347